This is the latest recevied weather packets stored in our database for station/object K6GMW. If no packets are shown the sender has not sent any weather packets the latest 1 day(s).
| Time | Temp. | Humidity | Pressure | Rain* | Wind** | Luminosity | Snow |
|---|---|---|---|---|---|---|---|
| 1778096184 | 16.67° C | 91% | 1013.5 hPa | 0 mm | - | 180 W/m² | - |
| 1778093757 | 15.56° C | 91% | 1013.2 hPa | 0 mm | - | 203 W/m² | - |
| 1778093151 | 15.56° C | 91% | 1013.3 hPa | 0 mm | - | 222 W/m² | - |
| 1778091938 | 15.56° C | 90% | 1014.1 hPa | 0 mm | - | 138 W/m² | - |
| 1778090726 | 15.56° C | 90% | 1014.3 hPa | 0 mm | - | 130 W/m² | - |
| 1778089210 | 15° C | 91% | 1014 hPa | 0 mm | - | 176 W/m² | - |
| 1778087998 | 15° C | 89% | 1015.1 hPa | 0 mm | - | 173 W/m² | - |
| 1778085577 | 14.44° C | 90% | 1016.1 hPa | 0 mm | - | 115 W/m² | - |
| 1778084665 | 15° C | 89% | 1016 hPa | 0 mm | - | 91 W/m² | - |
| 1778084362 | 15° C | 90% | 1015.7 hPa | 0 mm | - | 114 W/m² | - |
| 1778081731 | 15° C | 87% | 1014.3 hPa | 0 mm | - | 137 W/m² | - |
| 1778081125 | 15° C | 86% | 1014.5 hPa | 0 mm | - | 125 W/m² | - |
| 1778080218 | 15.56° C | 85% | 1014.5 hPa | 0 mm | - | 174 W/m² | - |
| 1778079914 | 15.56° C | 85% | 1014.4 hPa | 0 mm | - | 214 W/m² | - |
| 1778077795 | 15.56° C | 83% | 1013.9 hPa | 0 mm | - | 151 W/m² | - |
| 1778077190 | 15° C | 84% | 1013.8 hPa | 0 mm | - | 201 W/m² | - |
| 1778076888 | 15° C | 83% | 1013.6 hPa | 0 mm | - | 214 W/m² | - |
| 1778076283 | 15° C | 84% | 1013.5 hPa | 0 mm | - | 160 W/m² | - |
| 1778075677 | 15° C | 84% | 1013.6 hPa | 0 mm | - | 108 W/m² | - |
| 1778074766 | 15° C | 83% | 1013.4 hPa | 0 mm | - | 76 W/m² | - |
| 1778074463 | 15° C | 84% | 1013.4 hPa | 0 mm | - | 96 W/m² | - |
| 1778074160 | 15° C | 83% | 1013.6 hPa | 0 mm | - | 65 W/m² | - |
| 1778073857 | 15.56° C | 84% | 1013.2 hPa | 0 mm | - | 81 W/m² | - |
| 1778072948 | 15.56° C | 85% | 1013.2 hPa | 0 mm | - | 51 W/m² | - |
| 1778072644 | 15.56° C | 85% | 1013 hPa | 0 mm | - | 42 W/m² | - |
* Rain latest hour (hover to see other rain measurements)
** Current wind speed in m/s (hover to see current wind gust speed)